Regional Weather Roundup
Issued by NWS

Home | Current Version | Previous Version | Text Only | Print | Product List | Glossary On
Versions: 1 2 3 4 5 6 7 8 9 10 11 12 13 14 15 16 17 18 19 20 21 22 23 24 25 26 27 28 29 30 31 32 33 34 35 36 37 38 39 40 41 42 43 44 45 46 47 48 49 50
000
ASUS45 KBOI 220210
RWRID
WEATHER ROUNDUP FOR IDAHO
NATIONAL WEATHER SERVICE BOISE ID
700 PM MST SUN DEC 21 2014

NOTE: "FAIR" INDICATES FEW OR NO CLOUDS BELOW 12000 FEET
WITH NO SIGNIFICANT WEATHER AND/OR OBSTRUCTIONS TO VISIBILITY

IDZ012-014-220300-
SOUTHWEST IDAHO


CITY           SKY/WX    TMP DP  RH WIND       PRES   REMARKS
BOISE          LGT RAIN  42  38  85 NW12      30.08R
CALDWELL       CLOUDY    43  36  75 SW5       30.11R
MOUNTAIN HOME  LGT RAIN  42  38  88 NW12      30.08R
$$

IDZ016-017-220300-
SOUTHCENTRAL IDAHO


CITY           SKY/WX    TMP DP  RH WIND       PRES   REMARKS
BURLEY         CLOUDY    38  35  89 W22       29.98R WCI  27
JEROME         CLOUDY    37  35  92 SW24G33   30.01R WCI  26
TWIN FALLS     CLOUDY    39  34  82 SW23      30.03R WCI  28
$$

IDZ019>023-220300-
SOUTHEAST IDAHO


CITY           SKY/WX    TMP DP  RH WIND       PRES   REMARKS
IDAHO FALLS    MOCLDY    37  30  75 E6        29.88R WCI  32
POCATELLO      CLOUDY    39  37  92 SW15      29.93R WCI  31
REXBURG        MOCLDY    35  30  82 W7        29.86R WCI  29
$$

IDZ006-010-011-018-031-032-220300-
CENTRAL IDAHO MOUNTAINS


CITY           SKY/WX    TMP DP  RH WIND       PRES   REMARKS
MCCALL         CLOUDY    33  30  88 NW5       29.99R WCI  29
STANLEY          N/A     32  22  66 N6        29.96R WCI  26
SALMON         MOCLDY    39  27  60 N12       29.89R WCI  32
CHALLIS        MOCLDY    36  23  59 CALM      29.90R
$$

IDZ002-004-006-007-026-220300-
NORTHERN IDAHO


CITY           SKY/WX    TMP DP  RH WIND       PRES   REMARKS
LEWISTON       CLOUDY    50  36  58 SW8       29.95R
LOWELL           N/A     43  41  93 CALM      29.98R
COEUR D`ALENE  CLOUDY    43  36  75 W9        29.88R
MULLAN PASS    CLOUDY    28  26  92 W9        29.83R WCI  19
$$


USA.gov is the U.S. government's official web portal to all federal, state and local government web resources and services.